{"data":{"norad_id":58485,"epoch":"2026-05-24T20:42:30.145824Z","epoch_age_seconds":86824,"freshness":"FRESH","line1":"1 58485U 23186N   26144.86284891  .00000521  00000+0  28432-4 0  9993","line2":"2 58485  43.0030 353.6562 0001265 273.5100  86.5607 15.27592680137530","mean_motion":15.2759268,"eccentricity":0.0001265,"inclination_deg":43.003,"raan_deg":353.6562,"arg_perigee_deg":273.51,"mean_anomaly_deg":86.5607,"bstar":2.8432e-5,"rev_number":13753,"period_min":94.265966239116,"perigee_km":482.14319258251,"apogee_km":483.87906305885,"semimajor_km":6861.1481278207,"source":"CELESTRAK","updated_at":"2026-05-25T13:38:18.652412Z"}}